Regional Weather Roundup
Issued by NWS Kansas City/Pleasant Hill, MO

Home | Current Version | Previous Version | Text Only | Print | Product List | Glossary On
Versions: 1 2 3 4 5 6 7 8 9 10 11 12 13 14 15 16 17 18 19 20 21 22 23 24 25 26 27 28 29 30 31 32 33 34 35 36 37 38 39 40 41 42 43 44 45 46 47 48 49 50
000
ASUS43 KEAX 290315
RWREAX

WEATHER ROUNDUP FOR EASTERN KANSAS AND NORTHWEST MISSOURI
NATIONAL WEATHER SERVICE KANSAS CITY/PLEASANT HILL MO
1000 PM CDT SAT MAY 28 2022

KSZ040-057-103>105-MOZ028-029-037-043-290400-
...KANSAS CITY METROPOLITAN AREA...

CITY           SKY/WX    TMP DP  RH WIND       PRES   REMARKS
K.C. INTL      MOCLDY    76  61  59 S15       29.64S
K.C. DOWNTOWN  CLEAR     78  59  51 SE12G20   29.64S
LEES SUMMIT    CLEAR     75  61  61 S12       29.67S
OLATHE - IXD   PTCLDY    74  62  66 SE14      29.65S
OLATHE - OJC   CLEAR     74  60  61 S12       29.65S
LAWRENCE       PTCLDY    75  63  66 SE9       29.62S

$$

MOZ001>008-011>017-020>025-030>033-038>040-044>046-053-054-290400-
...NORTHERN AND CENTRAL MISSOURI...

CITY           SKY/WX    TMP DP  RH WIND       PRES   REMARKS
ST. JOSEPH       N/A     75  60  59 S15G24    29.62R
HARRISONVILLE  CLEAR     75  61  60 S12G17    29.70S
WHITEMAN AFB   CLEAR     72  62  69 SE9       29.67S
CLINTON        CLEAR     72  64  78 SE8       29.71S
SEDALIA        LGT RAIN  71  62  73 SE14      29.75R
MARSHALL       CLEAR     70  63  78 SE13      29.73S
CHILLICOTHE      N/A     75  61  61 SE9G20    29.69S
MOBERLY        CLEAR     72  59  64 S10       29.76R
KIRKSVILLE     CLEAR     69  61  75 S14       29.73R

$$

MOZ041-047>049-056>058-063>065-088>090-097-290400-
...EASTERN AND SOUTHERN MISSOURI...

CITY           SKY/WX    TMP DP  RH WIND       PRES   REMARKS
ST. LOUIS INTL MOCLDY    72  58  61 S12       29.85R
SPIRIT OF STL  PTCLDY    70  60  70 CALM      29.83R
COLUMBIA       CLEAR     71  60  68 SE12      29.78R
JEFFERSON CITY CLEAR     74  60  61 SE9       29.77R
MEXICO         CLEAR     68  63  83 S9        29.78R
ROLLA          CLEAR     68  62  81 S13       29.83R
LEBANON        CLEAR     68  61  77 SE12      29.81S
SPRINGFIELD    CLEAR     71  61  70 SE17G28   29.76S
BRANSON        CLEAR     68  64  88 SE9       29.82R
JOPLIN         CLEAR     73  65  75 SE7       29.71S
WEST PLAINS    PTCLDY    67  61  81 SE5       29.87R
SIKESTON       CLEAR     64  61  88 SE5       29.89R

$$

IAZ060-094-KSZ022-034>040-054-083-096-NEZ052-066-093-290400-
...KANSAS...SOUTHEAST NEBRASKA AND IOWA...

CITY           SKY/WX    TMP DP  RH WIND       PRES   REMARKS
TOPEKA         CLEAR     75  66  73 SE9       29.59S
MANHATTAN      PTCLDY    77  62  59 SE7       29.54S
EMPORIA        CLEAR     76  61  59 SE16G24   29.59S
OTTAWA         FAIR      73  66  78 SE10      29.63R
CHANUTE        CLEAR     74  63  68 SE10      29.65R
SALINA         MOCLDY    78  66  66 SE16      29.49F
WICHITA        PTCLDY    76  64  66 S18       29.55S
OMAHA          PTCLDY    78  63  59 S14       29.53S
LINCOLN        MOCLDY    78  65  63 SE14      29.51F
FALLS CITY     PTCLDY    75  64  68 SE16      29.57S
LAMONI         CLEAR     71  59  65 SE10      29.64F
DES MOINES     PTCLDY    73  60  63 SE10      29.64R

$$




USA.gov is the U.S. government's official web portal to all federal, state and local government web resources and services.